Location: Caltech
(34.1382°N, 118.1253°W)
Time: 08:39:55
(UTC-07:00)

Oscar 11 - Visible Passes

Search period start: 27 March 2015 00:00
Search period end: 06 April 2015 00:00
Orbit: 616 x 628 km, 97.8° (Epoch: 27 March)

Date Brightness Start Highest point End Pass type
(mag) Time Alt. Az. Time Alt. Az. Time Alt. Az.
27 Mar 9.4 21:12:15 13° NNE 21:12:15 13° NNE 21:12:54 10° NNE visible
28 Mar 9.4 21:30:16 16° N 21:30:16 16° N 21:31:14 10° N visible
29 Mar 9.4 21:48:18 17° N 21:48:18 17° N 21:49:20 10° N visible
30 Mar 9.6 22:06:19 16° NNW 22:06:19 16° NNW 22:07:16 10° NNW visible
31 Mar 9.4 20:47:08 11° NE 20:47:08 11° NE 20:47:22 10° NE visible
31 Mar 9.9 22:24:20 14° NNW 22:24:20 14° NNW 22:25:02 10° NNW visible
01 Apr 9.2 21:05:09 15° NNE 21:05:09 15° NNE 21:06:13 10° NNE visible
01 Apr 10.3 22:42:21 11° NW 22:42:21 11° NW 22:42:32 10° NW visible
02 Apr 9.0 21:23:10 19° NNE 21:23:10 19° NNE 21:24:38 10° N visible
03 Apr 9.0 21:41:11 22° N 21:41:11 22° N 21:42:47 10° N visible
04 Apr 9.2 21:59:12 22° NNW 21:59:12 22° NNW 22:00:46 10° NNW visible
05 Apr 9.4 20:40:01 10° NE 20:40:01 10° NE 20:40:14 10° NE visible
05 Apr 9.5 22:17:13 19° NNW 22:17:13 19° NNW 22:18:35 10° NNW visible
